Regional Weather Roundup
Issued by NWS Columbia, SC

Home | Current Version | Previous Version | Text Only | Print | Product List | Glossary On
Versions: 1 2 3 4 5 6 7 8 9 10 11 12 13 14 15 16 17 18 19 20 21 22 23 24 25 26 27 28 29 30 31 32 33 34 35 36 37 38 39 40 41 42 43 44 45 46 47 48 49 50
000
ASUS42 KCAE 040210
RWRCAE
REGIONAL WEATHER ROUNDUP
NATIONAL WEATHER SERVICE COLUMBIA SC
1000 PM EDT TUE MAY 03 2016

NOTE: "FAIR" INDICATES FEW OR NO CLOUDS BELOW 12,000 FEET WITH NO
SIGNIFICANT WEATHER AND/OR OBSTRUCTIONS TO VISIBILITY.

NOT ALL STATIONS ARE QUALITY CONTROLLED BY THE NATIONAL
WEATHER SERVICE. USE DATA WITH CAUTION...ESPECIALLY
DEWPOINT OBSERVATIONS.

SCZ001>056-GAZ040-063>065-077-040300-
...UPSTATE SOUTH CAROLINA...

CITY           SKY/WX    TMP DP  RH WIND       PRES   REMARKS
ANDERSON       CLEAR     68  54  60 W6        29.80R
LIBERTY        CLEAR     66  49  55 W5        29.79R
SPARTANBURG    CLEAR     64  54  68 W5        29.77R
CLEMSON        CLEAR     68  51  54 W9        29.81R
GREENVILLE     CLEAR     69  52  54 NW5       29.80R
GREENWOOD      CLEAR     69  55  60 W7        29.80S
GREER          CLEAR     68  52  56 NW7       29.78R
ROCK HILL      CLEAR     67  58  72 SW5       29.77R
CHESTER        CLEAR     64  59  82 CALM      29.77S
LAURENS        CLEAR     68  55  64 SW5       29.78R


...CENTRAL SOUTH CAROLINA...

CITY           SKY/WX    TMP DP  RH WIND       PRES   REMARKS
COLUMBIA APT   PTCLDY    71  66  84 SW8       29.77S
COLUMBIA OWENS CLEAR     71  66  84 SW3       29.78S
MCENTIRE ANGB  PTCLDY    70  67  89 W6        29.77S
ORANGEBURG     PTCLDY    73  65  75 W8        29.78R
SUMTER SHAW    PTCLDY    71  65  81 W8        29.75R
NEWBERRY       CLEAR     70  59  68 W5        29.81R
AIKEN          FAIR      68  64  88 SW3       29.83R
BARNWELL       FAIR      73  72  94 SW6       29.80S
MANNING        FAIR      73  64  73 SW6       29.77R
CAMDEN           N/A    N/A N/A N/A MISG        N/A
LANCASTER      CLEAR     68  66  94 W5        29.77R
WINNSBORO      PTCLDY    70  64  83 SW6       29.78R


...EASTERN AND COASTAL SOUTH CAROLINA...

CITY           SKY/WX    TMP DP  RH WIND       PRES   REMARKS
MYRTLE BEACH   CLEAR     75  64  69 SW7       29.78S
N MYRTLE BCH   CLEAR     73  70  90 SW14      29.75F
CONWAY         FAIR      72  70  94 S5        29.76S
MARION         FAIR      70  66  88 CALM      29.75S
HARTSVILLE     FAIR      70  63  78 SW3       29.76R
FLORENCE       CLEAR     75  66  73 W10       29.75S
DARLINGTON     CLEAR     73  67  81 SW8       29.75S
CHARLESTON APT CLOUDY    73  66  78 S13       29.81R THUNDER
MOUNT PLEASANT LGT RAIN  75  68  78 SW8       29.81R
WALTERBORO     CLOUDY    70  68  94 SW17G25   29.85R
BEAUFORT       TSTM      68  66  93 CALM      29.85F


...EASTERN GEORGIA...

CITY           SKY/WX    TMP DP  RH WIND       PRES   REMARKS
AUGUSTA BUSH F CLEAR     69  67  93 SW5       29.79R
AUGUSTA DANIEL CLEAR     73  65  75 CALM      29.81R
THOMSON        PTCLDY    71  70  98 CALM      29.85S
WASHINGTON     FAIR      66  55  68 CALM      29.81S
SYLVANIA       CLOUDY    68  67  95 W5        29.84S
STATESBORO     CLOUDY    70  69  97 W3        29.83F
SAVANNAH       CLOUDY    70  65  84 N7        29.83R


...SOUTHERN NORTH CAROLINA...

CITY           SKY/WX    TMP DP  RH WIND       PRES   REMARKS
CHARLOTTE      MOCLDY    68  61  78 CALM      29.77R
MONROE         CLEAR     68  61  78 SW8       29.75R
WADESBORO      PTCLDY    66  66 100 N12       29.75R
ROCKINGHAM     CLEAR     68  64  87 CALM      29.74F
RUTHERFORDTON  CLOUDY    67  53  62 CALM      29.80R
ASHEVILLE      PTCLDY    60  48  64 N18       29.85R

$$



USA.gov is the U.S. government's official web portal to all federal, state and local government web resources and services.